Regional Weather Roundup
Issued by NWS Sterling, VA

Home | Current Version | Previous Version | Text Only | Print | Product List | Glossary Off
Versions: 1 2 3 4 5 6 7 8 9 10 11 12 13 14 15 16 17 18 19 20 21 22 23 24 25 26 27 28 29 30 31 32 33 34 35 36 37 38 39 40 41 42 43 44 45 46 47 48 49 50

000
ASUS41 KLWX 261910
RWRLWX

REGIONAL WEATHER ROUNDUP
NATIONAL WEATHER SERVICE BALTIMORE MD/WASHINGTON DC
300 PM EDT THU MAR 26 2015

Note: "FAIR" indicates few or no clouds below 12,000 feet
with no significant weather and/or obstructions to visibility.
 TC=TEMPERATURE CELSIUS

 * =Non NWS site. Station does not report precipitation (e.g. rain,
    snow, etc.), thunder, or fog.

DCZ001-MDZ009-015-VAZ040>042-051-053>054-262000-
WASHINGTON METRO

CITY           SKY/WX    TMP DP  RH WIND       PRES   REMARKS
WASHINGTON NAT MOSUNNY   71  61  70 S10       29.68F
DULLES         MOSUNNY   72  57  59 S14G26    29.66F
ANDREWS AFB    MOSUNNY   71  61  69 SW21      29.67F
FT BELVOIR     SUNNY     69  60  71 S9G17     29.68F
QUANTICO       MOSUNNY   65  55  70 SW16      29.69F
COLLEGE PARK*  MOSUNNY   70  59  68 S9        29.67F
LEESBURG*      MOSUNNY   73  59  60 S23G31    29.66F
MANASSAS*      MOSUNNY   72  57  60 S20       29.68F
GAITHERSBURG*  PTSUNNY   70  57  64 S10G22    29.71F

$$

MDZ006>007-011-014-262000-
BALTIMORE METRO

CITY           SKY/WX    TMP DP  RH WIND       PRES   REMARKS
BWI AIRPORT    PTSUNNY   69  59  70 S13G21    29.67F
MD SCIENCE CTR   N/A     63  58  83 MISG      29.68F
MARTIN STATE   PTSUNNY   61  59  94 CALM      29.71F FOG
ANNAPOLIS      PTSUNNY   61  55  81 S14       29.69F

$$

MDZ012-015-019>023-262000-
MARYLAND EASTERN SHORE

CITY           SKY/WX    TMP DP  RH WIND       PRES   REMARKS
OCEAN CITY     CLOUDY    53  51  93 S10G22    29.81F FOG
SALISBURY      LGT RAIN  63  60  90 SW14      29.77F
BAY BRIDGE AP*   N/A     66  61  82 S18G30    29.69F
CAMBRIDGE*     CLOUDY    63  59  88 S13G22    29.72F
EASTON*        CLOUDY    66  64  94 S16G30    29.77F

$$

MDZ017>025-262000-
SOUTHERN MARYLAND

CITY           SKY/WX    TMP DP  RH WIND       PRES   REMARKS
PATUXENT RIVER PTSUNNY   69  60  73 S12       29.72F
ST INIGOES     PTSUNNY   66  58  75 S12       29.72F
LEONARDTOWN*   MOSUNNY   70  59  68 S13G22    29.71F

$$

MDZ003>005-262000-
NORTH CENTRAL MARYLAND

CITY           SKY/WX    TMP DP  RH WIND       PRES   REMARKS
FREDERICK*     NOT AVBL
HAGERSTOWN APT MOSUNNY   70  54  56 S18G25    29.61F
WESTMINSTER*   PTSUNNY   66  57  72 S13G18    29.66F

$$

MDZ501>502-262000-
WESTERN MARYLAND

CITY           SKY/WX    TMP DP  RH WIND       PRES   REMARKS
OAKLAND*       CLOUDY    59  50  72 W12G26    29.67S
CUMBERLAND*    MOSUNNY   75  45  33 SW21G29   29.62F

$$

VAZ025>031-262000-
SHENANDOAH VALLEY

CITY           SKY/WX    TMP DP  RH WIND       PRES   REMARKS
WINCHESTER*    MOSUNNY   73  50  43 SE16      29.61F
FRONT ROYAL*   FAIR      79  52  38 S10       29.60F
LURAY*         FAIR      81  54  39 S13G20    29.62F
NEW MARKET*    FAIR      77  52  42 S13G18    29.59F
STAUNTON*      MOSUNNY   76  51  40 S12G18    29.66F
WAYNESBORO*    FAIR      72  55  53 S12G25    29.67F

$$

WVZ021-048>050-054>055-262000-
EASTERN WEST VIRGINIA PANHANDLE

CITY           SKY/WX    TMP DP  RH WIND       PRES   REMARKS
MARTINSBURG    MOSUNNY   74  55  51 S15G23    29.60F
PETERSBURG*    PTSUNNY   77  42  28 W9G21     29.62F

$$

VAZ036>039-050-262000-
CENTRAL FOOTHILLS

CITY           SKY/WX    TMP DP  RH WIND       PRES   REMARKS
CHARLOTTESVILL MOSUNNY   72  56  57 S15G23    29.68F
CULPEPER*      SUNNY     73  57  56 SW16G24   29.68F
ORANGE*        MOSUNNY   70  57  64 S10G18    29.71F
GORDONSVILLE*  FAIR      71  58  63 S15       29.68F
WARRENTON*     FAIR      74  62  64 S12G18    29.67F

$$

VAZ055>057-262000-
NORTH AND CENTRAL PIEDMONT

CITY           SKY/WX    TMP DP  RH WIND       PRES   REMARKS
FREDERICKSBRG* SUNNY     74  58  56 SW18G28   29.68F
STAFFORD*      MOSUNNY   71  55  57 S12G20    29.73F

$$

NCZ024-NYZ072-PAZ021-071-VAZ022-071-262000-
OTHER REGIONAL OBSERVATIONS

CITY           SKY/WX    TMP DP  RH WIND       PRES   REMARKS
NEW YORK CITY  CLOUDY    51  48  89 VRB5      29.74F FOG
PHILADELPHIA   CLOUDY    64  59  83 S15G21    29.70F
PITTSBURGH     LGT RAIN  43  40  89 N14       29.75S
ROANOKE        PTSUNNY   71  54  54 SE14      29.73F
RICHMOND       PTSUNNY   75  60  59 S18       29.71F
RALEIGH        PTSUNNY   73  58  59 SW17G23   29.80F

$$

ANZ530>537-262000-
MARINE OBSERVATIONS

STATION/POSITION TIME  TEMP    WIND        PRES
                       AIR SEA DIR/SP/G
                 (UTC) (F)     (DEG/KT/KT) (MB)
THOMAS PT LIGHT  1900                        N/A
BALT KEY BRIDGE  1800   59     170/  7/  9 1007.1F
COVE POINT       1800   53     190/ 16/ 17 1008.1F
LEWISETTA        1800   64 48              1008.0F
SOLOMONS ISLAND  1800      45                N/A
PINEY POINT      1812          190/ 12/ 12   N/A

$$



USA.gov is the U.S. government's official web portal to all federal, state and local government web resources and services.